Location: Fort Worth, Tx
(32.7431°N, 97.3695°W)
Time: 06:05:52
(UTC-05:00)

Explorer 11/Cluster Stage 4 - Pass Details

Date: 13 February 2026
Orbit: 463 x 1176 km, 28.8° (Epoch: 5 March)

Event Time Altitude Azimuth Distance (km) Brightness Sun altitude
Rises 20:24:07 0° 267° (W) 2,643 11.2 -15.4°
Reaches altitude 10° 20:26:22 10° 256° (WSW) 1,832 9.8 -15.9°
Maximum altitude 20:30:07 31° 193° (SSW) 1,086 7.5 -16.7°
Enters shadow 20:33:26 15° 139° (SE) 1,801 8.1 -17.4°
